Jackpot

Texas Poker Multi Jackpot System

Kini Telah hadir Jackpot SUPER ROYAL FLUSH

Kini Telah hadir Jackpot 2000 (khusus table VIP keatas).

Ikutilah global jackpot yang tersedia di system kami, dengan system jackpot terbaru dan pertama di indonesia, anda dapat membeli jackpot dengan harga 100 rupiah saja dan menangkan hadiahnya hingga puluhan juta rupiah.

Jackpot bukanlah suatu keharusan untuk dibeli, namun kami memberikan suatu fitur tambahan untuk member tercinta dari www.hokipk.com.

Terdapat tiga pilihan harga jackpot yang bisa anda beli yaitu :100,500,1000 dan 2000(khusus table VIP Keatas) rupiah.

Hadiah dari Multi jackpot system www.hokipk.com

  1. full house x 10 harga jackpot yang anda beli.
      (contoh:anda membeli 1000 maka:1000 X10 = 10.000)
  2. four of kind x 250 harga jackpot yang anda beli
      (contoh:anda membeli 1000 maka:1000 X250 = 250.000)
  3. Straight flush x 1200
      (contoh:anda membeli 1000 maka:1000 X1200 = 1.200.000)
  4. Royal flush x 10000 harga jackpot yang anda beli
      (contoh:anda membeli 1000 maka:1000 X10000 = 10.000.000)
  5. SUPER ROYAL FLUSH x 30000 harga jackpot yang anda beli
      (contoh:anda membeli 1000 maka:1000 X30000 = 30.000.000)

Kondisi kartu

  1. full house adalah kondisi kartu dimana kartu anda dan kartu tengah dengan total 7 kartu bisa mendapatkan nilai 5 kartu dengan kombinasi 1 tris(three of kind) dan 1 pair, contoh 3 kartu 10 dan 2 kartu 5
  2. Four of kind adalah kondisi kartu dimana kartu anda dan kartu tengah dengan total 7 kartu bisa mendapatkan nilai 5 kartu dengan kombinasi 4 kartu yang sama jumlah dan 1 kartu apapun juga contoh anda mendapatkan 4 buah kartu angka 3 dan 1 kartu apapun.
  3. Staright flush adalah kondisi kartu dimana kartu anda dan kartu tengah dengan total 7 kartu bisa mendapatkan nilai 5 kartu dengan kombinasi seri / staright dengan kembang yang sama contoh : urutan kartu dari angka 5, 6, 7, 8 , 9 10 dengan kembang yg sama misalnya as hati
  4. Royal flush adalah kondisi kartu dimana kartu anda dan kartu tengah dengan total 7 kartu bisa mendapatkan nilai 5 kartu dengan kombinasi seri / staright dengan kembang yang sama tetapi kartu tersebut haruslah dimulai dari 10. contoh 10, Queen, Jack, King dan aces dengan kembang yang sama
  5. Super Royal flush adalah kondisi kartu dimana Kedua kartu anda digabung dengan 3 kartu pertama meja haruslah royal flush. contoh kartu anda 10,Queen kembang sama dan 3 kartu pertama meja adalah Jack, King dan aces dengan kembang yang sama

Demikian adalah penjelasan dari Multi Jackpot www.hokipk.com terima kasih dan selamat bermain salam hoki dari kami

Texas Poker Jackpot Winner

TOP SUPER ROYAL FLUSH
No.TanggalNamaPriceWin
124/01 07:55THEWALKERSuper Royal flush3,000,000
224/01 05:25WEDF2PFJSuper Royal flush3,000,000
323/01 23:32KHOEJUNSuper Royal flush30,000,000
423/01 13:16KITICSuper Royal flush3,000,000
522/01 21:21XYXGICUUBZSuper Royal flush15,000,000
TOP ROYAL FLUSH
No.TanggalNamaPriceWin
124/01 07:19MAUT0909Royal flush5,000,000
224/01 06:39SIANODA87Royal flush20,000,000
324/01 06:04TASYAMANEHRoyal flush20,000,000
424/01 06:03SILVERWORKRoyal flush1,000,000
524/01 05:18IMAMFAIRoyal flush1,000,000
TOP STRAIGHT FLUSH
No.TanggalNamaPriceWin
124/01 07:56RIBOSStraight Flush600,000
224/01 07:50UG9999Straight Flush600,000
324/01 07:46ASJB88Straight Flush1,200,000
424/01 07:46MAESTRO8Straight Flush2,400,000
524/01 07:44RUBIN78Straight Flush120,000
LATEST JACKPOT
No.TanggalNamaPriceWin
124/01 07:59MIXXO99Full House5,000
224/01 07:59DWAUNTUNGFull House10,000
324/01 07:59TAIMU_Full House5,000
424/01 07:59TAIKU_Four Of A Kind125,000
524/01 07:59ZAMRUT1980Full House10,000
624/01 07:59DOOITFull House10,000
724/01 07:59DISAMBELINFull House5,000
824/01 07:59BASMIE99Full House5,000
924/01 07:59NTIN13Full House1,000
1024/01 07:59ADHI011Full House1,000
1124/01 07:59MIKAIL89Full House1,000
1224/01 07:59TURBOK1NGFull House5,000
1324/01 07:59I7EUKHKEFYFour Of A Kind125,000
1424/01 07:59SUENENGFull House1,000
1524/01 07:59THLGRJCP8CFull House1,000
1624/01 07:58B8DC96ECFull House1,000
1724/01 07:58DEKFLUSH88Full House1,000
1824/01 07:58KYANA24Full House10,000
1924/01 07:58MANTAP103Full House5,000
2024/01 07:58AMATEUR911Full House1,000
2124/01 07:58SIXDEVIL33Full House10,000
2224/01 07:58HIWANG1Full House10,000
2324/01 07:58AJIZIDAFull House10,000
2424/01 07:581C1Full House10,000
2524/01 07:58SEKRUPFull House10,000
2624/01 07:58MA1NMA1NFull House1,000
2724/01 07:58ARLANK86Full House5,000
2824/01 07:58WESSSSSFull House10,000
2924/01 07:58SIDYFull House5,000
3024/01 07:58HERYKONEXFour Of A Kind125,000
3124/01 07:58RALESSFull House1,000
3224/01 07:58NURHADIEKOFull House5,000
3324/01 07:58COKDAYFull House5,000
3424/01 07:58THEKUBE99Full House1,000
3524/01 07:58PRESEDINFull House1,000
3624/01 07:58ANDRI23YFull House10,000
3724/01 07:57DA7777Full House5,000
3824/01 07:57ZUKI6000Full House10,000
3924/01 07:57KENDOX601Full House1,000
4024/01 07:57SUN09Full House10,000
4124/01 07:57ALFIAHFull House5,000
4224/01 07:57IZA182393Full House5,000
4324/01 07:57DJLUCKY08Full House20,000
4424/01 07:57KUKUN888Full House1,000
4524/01 07:57DUDUNG1553Full House1,000
4624/01 07:57NSVTEFVBCHFull House1,000
4724/01 07:57CUL3NGFull House5,000
4824/01 07:57WIRAH777Full House1,000
4924/01 07:57SABDRAFull House1,000
5024/01 07:57VIALOVEFull House5,000

Domino Multi Jackpot System

Ikutilah global jackpot yang tersedia di system kami, dengan system jackpot terbaru dan pertama di indonesia, anda dapat membeli jackpot dengan harga 100 rupiah saja dan menangkan hadiahnya hingga puluhan juta rupiah.

Jackpot bukanlah suatu keharusan untuk dibeli, namun kami memberikan suatu fitur tambahan untuk member tercinta dari www.hokipk.com.

Terdapat tiga pilihan harga jackpot yang bisa anda beli yaitu :100,500 dan 1000 rupiah.

Hadiah dari Multi jackpot system www.hokipk.com

  1. Murni Kecil x 50 harga jackpot yang anda beli.
      (contoh:anda membeli 1000 maka:1000 X 50 = 50.000)
  2. Murni Besar x 50 harga jackpot yang anda beli
      (contoh:anda membeli 1000 maka:1000 X 50 = 50.000)
  3. BALAK x 100 harga jackpot yang anda beli
      (contoh:anda membeli 1000 maka:1000 X 100 = 100.000)
  4. ENAM DEWA x 6666 harga jackpot yang anda beli
      (contoh:anda membeli 1000 maka:1000 X 6666 = 6.666.000)

Demikian adalah penjelasan dari Multi Jackpot www.hokipk.com terima kasih dan selamat bermain salam hoki dari kami

Domino Jackpot Winner

TOP ENAM DEWA
No.TanggalNamaPriceWin
124/01 05:28SULTN99murni enam6,666,000
224/01 04:08KITTY995murni enam666,600
324/01 00:16TEMPEKTUOmurni enam3,333,000
423/01 23:59TM7ZINATMJmurni enam6,666,000
523/01 23:50CROSSBACKmurni enam6,666,000
TOP BALAK
No.TanggalNamaPriceWin
124/01 07:57RONITOLbalak50,000
224/01 07:51NAGUKAbalak100,000
324/01 07:40JEB_REKbalak10,000
424/01 07:38REGGEA99balak50,000
524/01 07:29HIKAM92balak100,000
LATEST JACKPOT
No.TanggalNamaPriceWin
124/01 07:59SOEGA17murni kecil5,000
224/01 07:57NYETEAKmurni besar25,000
324/01 07:57RONITOLbalak50,000
424/01 07:56D3W4KOEmurni besar50,000
524/01 07:55ELY2004murni kecil5,000
624/01 07:54139FB3164murni kecil25,000
724/01 07:53BLENDEZ99murni besar25,000
824/01 07:51NAGUKAbalak100,000
924/01 07:47UNDUNGLAUTmurni kecil50,000
1024/01 07:46ARFIN99murni kecil50,000
1124/01 07:41SABRINA113murni besar5,000
1224/01 07:40JEB_REKbalak10,000
1324/01 07:40KARUA77murni besar50,000
1424/01 07:40ACUNG007murni kecil50,000
1524/01 07:38PEPONGmurni kecil25,000
1624/01 07:38REGGEA99balak50,000
1724/01 07:35APLETOFFmurni kecil25,000
1824/01 07:34CILIANG88murni kecil50,000
1924/01 07:34MAUPA13murni besar50,000
2024/01 07:33REGGEA99murni besar25,000
2124/01 07:32KARUA77murni besar50,000
2224/01 07:29HIKAM92balak100,000
2324/01 07:28PANSUS2balak100,000
2424/01 07:27SADEWAAAAAbalak50,000
2524/01 07:25QUEN16murni kecil25,000
2624/01 07:25KING001murni besar50,000
2724/01 07:24KENCANA_murni kecil50,000
2824/01 07:22DEKIKAGEmurni kecil25,000
2924/01 07:19MADFAUmurni kecil50,000
3024/01 07:17CILIANG88murni kecil50,000
3124/01 07:16BLACKZCXmurni kecil25,000
3224/01 07:16KEKEN30murni besar25,000
3324/01 07:13RIYANBAR12murni besar50,000
3424/01 07:10BLENDEZ99balak50,000
3524/01 07:09KUNCINGmurni kecil25,000
3624/01 07:07DEWIPKR2murni kecil5,000
3724/01 07:06DP035murni besar5,000
3824/01 07:03BLACKZCXbalak10,000
3924/01 07:00ASU_TENANbalak10,000
4024/01 06:59JIMMY2606murni kecil25,000
4124/01 06:56SAFANA00murni kecil50,000
4224/01 06:56IAMVARIOmurni kecil25,000
4324/01 06:52MON1C88murni kecil5,000
4424/01 06:51ICCHA29murni kecil5,000
4524/01 06:47SUTIPAH04murni kecil25,000
4624/01 06:47ALAM_76murni besar25,000
4724/01 06:45PUPUT8murni kecil5,000
4824/01 06:44DP035murni besar5,000
4924/01 06:41PAPIEbalak50,000
5024/01 06:41SAFANA00balak100,000

Ceme Multi Jackpot System

Jackpot dilihat dari gabungan kartu pemain dengan kartu bandar. Bandar harus membeli jackpot sebanyak jumlah player yang sedang duduk. Sebagai contoh bila terdapat 3 pemain duduk bermain, dan bandar memutuskan untuk membeli jackpot Rp 1.000, maka pada periode tersebut bandar akan membeli jackpot sebanyak 3xRp1.000 = Rp3.000.

Jackpot bukanlah suatu keharusan untuk dibeli, namun kami memberikan suatu fitur tambahan untuk member tercinta dari www.hokipk.com.

Terdapat tiga pilihan harga jackpot yang bisa anda beli yaitu :100,500 dan 1000 rupiah.

Hadiah dari Multi jackpot system www.hokipk.com

  1. Murni Kecil x 50 harga jackpot yang anda beli.
      (contoh:anda membeli 1000 maka:1000 X 50 = 50.000)
  2. Murni Besar x 50 harga jackpot yang anda beli
      (contoh:anda membeli 1000 maka:1000 X 50 = 50.000)
  3. BALAK x 200 harga jackpot yang anda beli
      (contoh:anda membeli 1000 maka:1000 X 200 = 200.000)
  4. ENAM DEWA x 6666 harga jackpot yang anda beli
      (contoh:anda membeli 1000 maka:1000 X 6666 = 6.666.000)

Demikian adalah penjelasan dari Multi Jackpot www.hokipk.com terima kasih dan selamat bermain salam hoki dari kami

Ceme Jackpot Winner

TOP ENAM DEWA
No.TanggalNamaPriceWin
124/01 07:42MATAM1murni enam6,666,000
224/01 06:59DHANDY24murni enam6,666,000
324/01 05:58GDX234murni enam666,600
424/01 05:58SAKHA13murni enam666,600
524/01 05:53CAPIT98murni enam3,333,000
TOP BALAK
No.TanggalNamaPriceWin
124/01 07:57PILIP99balak200,000
224/01 07:57IRQIZ17balak20,000
324/01 07:562855MAbalak100,000
424/01 07:56WILYPPMbalak200,000
524/01 07:55DKL111balak200,000
LATEST JACKPOT
No.TanggalNamaPriceWin
124/01 07:59HAQIKAT07murni besar50,000
224/01 07:59ENANEPANmurni kecil50,000
324/01 07:59DYRAJA80murni kecil50,000
424/01 07:58SAKHA13murni kecil5,000
524/01 07:58RUDYMOTORmurni kecil25,000
624/01 07:58DYRAJA80murni kecil50,000
724/01 07:58ELXTILJ7DHmurni besar25,000
824/01 07:57BB0211BAmurni besar50,000
924/01 07:57BB0211BAmurni besar50,000
1024/01 07:57BOTEM09murni besar50,000
1124/01 07:57PILIP99balak200,000
1224/01 07:57IRQIZ17balak20,000
1324/01 07:57M4RLAFmurni kecil50,000
1424/01 07:57DKL111murni kecil50,000
1524/01 07:57DYRAJA80murni besar50,000
1624/01 07:56VERANAY5murni kecil50,000
1724/01 07:56AJ1Smurni kecil25,000
1824/01 07:56ELXTILJ7DHmurni besar25,000
1924/01 07:56QIUQIU099murni besar5,000
2024/01 07:56GINZmurni kecil50,000
2124/01 07:562855MAbalak100,000
2224/01 07:56MX7UY4OQA9murni kecil50,000
2324/01 07:56WILYPPMbalak200,000
2424/01 07:56RUDYMOTORmurni kecil25,000
2524/01 07:56MAHE8587murni kecil25,000
2624/01 07:55HATROLL99murni besar50,000
2724/01 07:55R1ZKYRTmurni besar5,000
2824/01 07:55DKL111balak200,000
2924/01 07:54BOTEM09balak200,000
3024/01 07:54PILIP99murni besar25,000
3124/01 07:53R1ZKYRTmurni kecil5,000
3224/01 07:53BAJAI103murni kecil5,000
3324/01 07:53M0S3murni kecil50,000
3424/01 07:53BAJAI103murni besar5,000
3524/01 07:53PAI99balak200,000
3624/01 07:52IDUL578murni kecil50,000
3724/01 07:52VENZHUmurni kecil5,000
3824/01 07:52ZEKO010murni kecil50,000
3924/01 07:52WATATANGmurni besar5,000
4024/01 07:52YNWA11murni besar50,000
4124/01 07:52MAGNET34balak200,000
4224/01 07:52NANG76balak200,000
4324/01 07:52BUMBUM66murni kecil50,000
4424/01 07:52ADRY11murni kecil50,000
4524/01 07:52SUS58murni kecil50,000
4624/01 07:51BB0211BAmurni kecil50,000
4724/01 07:51NAIRA89murni kecil25,000
4824/01 07:51WITHA1011murni kecil50,000
4924/01 07:51DKL111murni kecil50,000
5024/01 07:51SON8805murni besar5,000